Churchill Airport

Airport
ICAO code: 
CYYQ
Summary
ICAO Region: 
NAM
Territory: 
Location: 
Churchill, Manitoba,
Coordinates: 
Aerial View: 
58° 44' 17.333" N, 94° 4' 14.322" W
Airport BS: 
Non Avian Wildlife Hazards to Aircraft
Airport CFIT: 
Altimeter Temperature Error Correction
Airport GND: 
Aircraft Ground De/Anti Icing
Airport WX: 
Fog
Metar
Observation
CYYQ 081900Z 21005KT 15SM BKN250 M25/M29 A2984 RMK CI6 SLP113
Station
Churchill, Man.
Date/Time
2021-12-08 19:00:00
Wind direction
210°
Wind speed
05 kts
Lowest cloud amount
broken clouds
Temperature
-25°C
Dew point
-29°C
Humidity
69%
Weather condition
n/a

Description

Airport serving Churchill, Manitoba.

Climatology

Subarctic climate (Köppen climate classification Dfc) - long, usually very cold winters, and short, cool to mild summers.

Note

Diversion airfield for commercial aircraft on Polar and NAT routes

Runways

Designator Length Width Surface Rops
7/25 1219 30 GVL No/No
15/33 2804 49 ASP No/No
Airport map: 
Aerial View: 

SKYbrary Partners:

Safety knowledge contributed by: